Waarnemingen

Advertentie
Mijn weer
Dax, Frankrijk (7603): temperatuur & dauwpunt: 20.05.2017 16:00:00 - 26.05.2017 16:00:00 (CEST)Dax, Frankrijk (7603): temperatuur 5cm: 20.05.2017 16:00:00 - 26.05.2017 16:00:00 (CEST)Dax, Frankrijk (7603): temperatuur -20cm & temperatuur -100cm: 20.05.2017 16:00:00 - 26.05.2017 16:00:00 (CEST)Dax, Frankrijk (7603): windsnelheid & windstoten: 20.05.2017 16:00:00 - 26.05.2017 16:00:00 (CEST)Dax, Frankrijk (7603): windrichting: 20.05.2017 16:00:00 - 26.05.2017 16:00:00 (CEST)Dax, Frankrijk (7603): luchtdruk: 20.05.2017 16:00:00 - 26.05.2017 16:00:00 (CEST)Dax, Frankrijk (7603): zicht: 20.05.2017 16:00:00 - 26.05.2017 16:00:00 (CEST)Dax, Frankrijk (7603): Zonneschijnduur: 20.05.2017 16:00:00 - 26.05.2017 16:00:00 (CEST)Dax, Frankrijk (7603): neerslag: 20.05.2017 16:00:00 - 26.05.2017 16:00:00 (CEST)
Datum & Tijd tt [°C] td [°C] tt 5cm [°C] tt -20cm [°C] tt -100cm [°C] ff [km/u] ff [kn] fx [km/u] fx [kn] dd ppp [hPa] vv [km] sd [min] rr [mm]
26.05.2017 16:00:00 34,0 16,4 37,0 21,1 17,3 7 4 17 9 WNW 1010,2 30 60 0,0
26.05.2017 15:00:00 33,0 17,6 36,7 20,8 17,3 6 3 14 8 NW 1010,6 21 60 0,0
26.05.2017 14:00:00 32,2 17,3 34,5 20,6 17,3 9 5 19 11 ZO 1010,7 25 60 0,0
26.05.2017 13:00:00 30,8 18,2 33,2 20,4 17,2 10 5 19 10 O 1010,9 26 60 0,0
26.05.2017 12:00:00 29,2 18,0 32,3 20,3 17,2 5 3 11 6 OZO 1011,2 21 60 0,0
26.05.2017 11:00:00 27,3 18,0 29,7 20,2 17,2 4 2 10 5 ZO 1011,3 20 60 0,0
26.05.2017 10:00:00 25,0 17,7 24,6 20,3 17,2 2 1 9 5 ONO 1011,6 15 60 0,0
26.05.2017 09:00:00 21,3 17,1 20,7 20,4 17,2 6 3 12 7 OZO 1011,4 16 60 0,0
26.05.2017 08:00:00 18,6 15,7 17,2 20,5 17,2 8 4 11 6 OZO 1011,4 10 60 0,0
26.05.2017 07:00:00 17,1 14,9 15,6 20,5 17,2 7 4 10 5 OZO 1011,4 10 7 0,0
26.05.2017 06:00:00 16,6 14,8 15,5 20,6 17,2 7 4 11 6 OZO 1011,8 9 0 0,0
26.05.2017 05:00:00 16,8 14,8 15,4 20,7 17,2 4 2 10 6 ZO 1012,3 9 0 0,0
26.05.2017 04:00:00 17,2 15,0 16,1 20,8 17,2 4 2 9 5 Z 1012,6 9 0 0,0
26.05.2017 03:00:00 18,9 14,8 18,2 20,9 17,2 7 4 18 10 WZW 1012,8 12 0 0,0
26.05.2017 02:00:00 19,8 15,2 19,0 20,9 17,2 10 5 37 20 W 1013,3 13 0 0,0
26.05.2017 01:00:00 19,7 16,5 19,2 21,0 17,1 18 10 40 22 WZW 1013,6 15 0 0,0
26.05.2017 00:00:00 25,0 16,2 23,6 21,1 17,2 6 3 14 8 NO 1011,6 43 0 0,0
25.05.2017 23:00:00 25,9 16,2 24,2 21,1 17,1 9 5 14 8 ONO 1011,1 40 0 0,0
25.05.2017 22:00:00 28,0 16,3 25,7 21,1 17,1 9 5 16 9 ONO 1010,8 30 1 0,0
25.05.2017 21:00:00 30,0 14,9 28,3 21,1 17,1 9 5 14 7 O 1010,5 35 56 0,0
25.05.2017 20:00:00 32,0 14,2 33,3 21,0 17,1 9 5 17 9 O 1010,4 27 60 0,0
25.05.2017 19:00:00 32,7 13,8 33,8 20,9 17,1 11 6 22 12 O 1010,7 32 60 0,0
25.05.2017 18:00:00 33,2 14,8 35,4 20,7 17,1 13 7 22 12 O 1011,0 28 60 0,0
25.05.2017 17:00:00 33,2 14,8 35,6 20,5 17,1 11 6 26 14 O 1011,4 22 60 0,0
25.05.2017 16:00:00 32,9 17,1 35,4 20,2 17,1 12 6 22 12 O 1011,9 22 60 0,0
25.05.2017 15:00:00 32,0 16,3 34,4 19,9 17,1 11 6 25 14 OZO 1012,5 25 60 0,0
25.05.2017 14:00:00 31,4 17,3 33,3 19,7 17,1 14 8 24 13 O 1013,0 26 60 0,0
25.05.2017 13:00:00 29,8 18,3 31,8 19,6 17,1 14 8 23 12 OZO 1013,6 23 60 0,0
25.05.2017 12:00:00 28,2 17,4 29,2 19,5 17,1 12 7 28 15 OZO 1014,0 23 60 0,0
25.05.2017 11:00:00 26,4 16,9 27,1 19,5 17,1 16 8 26 14 OZO 1014,5 26 60 0,0
25.05.2017 10:00:00 23,5 17,3 23,5 19,5 17,0 8 5 16 8 OZO 1014,9 24 60 0,0
25.05.2017 09:00:00 20,0 15,8 19,7 19,5 17,1 6 4 10 5 ZO 1014,9 24 60 0,0
25.05.2017 08:00:00 17,2 14,7 15,6 19,6 17,0 6 4 14 8 O 1015,0 20 60 0,0
25.05.2017 07:00:00 15,5 13,9 15,0 19,7 17,1 7 4 14 7 ONO 1014,9 11 6 0,0
25.05.2017 06:00:00 16,1 14,5 14,6 19,8 17,0 8 4 14 7 NO 1014,9 12 0 0,0
25.05.2017 05:00:00 16,4 14,1 15,1 19,9 17,0 5 3 11 6 ONO 1015,1 18 0 0,0
25.05.2017 04:00:00 17,4 14,3 15,9 19,9 17,0 6 3 14 8 ONO 1015,2 20 0 0,0
25.05.2017 03:00:00 18,4 14,7 16,0 20,0 17,0 4 2 8 4 NO 1015,8 19 0 0,0
25.05.2017 02:00:00 19,0 14,5 17,1 20,1 17,0 5 3 11 6 ONO 1016,4 29 0 0,0
25.05.2017 01:00:00 21,3 14,5 20,1 20,1 17,0 8 4 15 8 ONO 1016,6 26 0 0,0
25.05.2017 00:00:00 21,9 14,5 19,7 20,2 17,0 11 6 16 8 O 1017,0 33 0 0,0
24.05.2017 23:00:00 23,0 14,6 21,2 20,2 17,0 9 5 20 11 O 1017,3 33 0 0,0
24.05.2017 22:00:00 24,8 14,9 23,5 20,2 17,0 14 7 22 12 O 1017,1 35 0 0,0
24.05.2017 21:00:00 26,4 15,1 25,3 20,2 17,0 8 5 22 12 O 1017,0 33 56 0,0
24.05.2017 20:00:00 28,3 14,5 29,2 20,1 17,0 14 8 24 13 O 1017,0 27 60 0,0
24.05.2017 19:00:00 29,1 15,6 30,7 20,0 17,0 13 7 24 13 O 1017,1 28 60 0,0
24.05.2017 18:00:00 29,1 16,0 31,3 19,8 17,0 16 9 28 15 OZO 1017,6 22 60 0,0
24.05.2017 17:00:00 29,0 16,5 31,8 19,6 17,0 18 10 29 15 ONO 1018,1 25 60 0,0
24.05.2017 16:00:00 28,5 17,7 30,9 19,3 17,0 16 8 31 17 O 1018,9 15 60 0,0
24.05.2017 15:00:00 27,6 17,5 29,2 19,1 17,0 18 10 31 17 O 1019,6 15 60 0,0
24.05.2017 14:00:00 26,0 17,1 28,3 18,9 16,9 14 8 26 14 ONO 1020,1 10 60 0,0
24.05.2017 13:00:00 24,7 15,9 27,1 18,7 16,9 14 7 24 13 ONO 1020,8 22 60 0,0
24.05.2017 12:00:00 23,0 16,1 25,7 18,6 17,0 14 8 23 12 ONO 1021,3 10 60 0,0
24.05.2017 11:00:00 22,1 16,1 23,1 18,6 17,0 10 5 22 12 OZO 1021,6 10 60 0,0
24.05.2017 10:00:00 18,5 15,4 17,7 18,6 16,9 4 2 9 5 ZO 1022,2 12 60 0,0
24.05.2017 09:00:00 14,4 13,8 13,6 18,7 16,9 7 4 9 5 OZO 1022,4 0,9 58 0,0
24.05.2017 08:00:00 13,0 12,7 10,7 18,8 16,9 4 2 7 4 ONO 1022,4 0,8 24 0,0
24.05.2017 07:00:00 11,1 10,6 9,4 18,9 16,9 3 2 5 3 ZO 1022,5 0,2 0 0,0
24.05.2017 06:00:00 12,5 12,0 11,0 19,0 17,0 4 2 8 4 ONO 1022,4 4,5 0 0,0
24.05.2017 05:00:00 11,9 11,4 10,1 19,1 16,9 2 1 4 2 NO 1022,5 9 0 0,0
24.05.2017 04:00:00 12,4 11,6 10,8 19,2 16,9 0 0 5 3 N 1022,9 10 0 0,0
24.05.2017 03:00:00 13,2 12,4 12,1 19,3 16,9 3 2 5 3 NNW 1023,2 8 0 0,0
24.05.2017 02:00:00 13,8 12,9 12,6 19,5 16,9 0 0 6 3 N 1023,4 10 0 0,0
24.05.2017 01:00:00 14,2 12,9 13,2 19,6 16,9 4 2 9 5 ZO 1023,7 12 0 0,0
24.05.2017 00:00:00 15,2 13,6 14,5 19,6 16,9 5 3 12 7 NNW 1023,6 12 0 0,0
23.05.2017 23:00:00 16,0 13,7 15,4 19,7 16,9 8 4 11 6 NNW 1023,7 17 0 0,0
23.05.2017 22:00:00 17,1 13,8 16,3 19,7 16,9 7 4 15 8 NW 1023,5 25 0 0,0
23.05.2017 21:00:00 19,0 14,0 18,7 19,6 16,9 8 5 16 8 WNW 1023,2 29 56 0,0
23.05.2017 20:00:00 21,2 14,6 21,9 19,6 16,9 7 4 14 8 WNW 1022,7 34 55 0,0
23.05.2017 19:00:00 22,7 14,5 24,3 19,4 16,9 6 3 11 6 ZW 1022,7 17 55 0,0
23.05.2017 18:00:00 22,3 14,2 24,6 19,2 16,9 3 2 15 8 Z 1023,0 17 53 0,0
23.05.2017 17:00:00 22,0 14,1 24,7 19,0 16,9 5 3 14 8 ZZO 1023,4 10 60 0,0
23.05.2017 16:00:00 20,7 13,2 24,0 18,9 16,8 7 4 16 9 ZO 1023,8 10 54 0,0
23.05.2017 15:00:00 20,1 13,1 21,2 18,8 16,9 4 2 16 9 OZO 1024,2 9 44 0,0
23.05.2017 14:00:00 18,7 12,7 20,2 18,7 16,9 4 2 14 8 N 1024,8 14 0 0,0
23.05.2017 13:00:00 18,1 12,8 19,0 18,7 16,8 4 2 10 5 WZW 1025,2 8 0 0,0
23.05.2017 12:00:00 16,8 11,7 17,5 18,7 16,8 2 1 11 6 WNW 1025,4 7 0 0,0
23.05.2017 11:00:00 16,2 11,6 16,7 18,7 16,8 4 2 9 5 W 1025,2 7 0 0,0
23.05.2017 10:00:00 16,1 11,9 16,1 18,8 16,8 0 0 9 5 N 1025,0 7 0 0,0
23.05.2017 09:00:00 15,3 11,7 15,3 18,8 16,8 4 2 7 4 ZW 1024,7 13 0 0,0
23.05.2017 08:00:00 15,0 11,6 14,8 18,9 16,9 3 1 11 6 WZW 1024,3 7 0 0,0
23.05.2017 07:00:00 14,8 11,4 14,7 18,9 16,8 6 4 12 6 ZW 1023,6 6 0 0,0
23.05.2017 06:00:00 14,9 11,1 14,7 19,0 16,8 8 4 15 8 WZW 1023,2 14 0 0,0
23.05.2017 05:00:00 14,9 11,3 14,8 19,1 16,8 7 4 15 8 WZW 1023,1 14 0 0,0
23.05.2017 04:00:00 15,0 11,4 14,8 19,1 16,8 8 5 16 9 WZW 1023,0 13 0 0,0
23.05.2017 03:00:00 15,0 12,1 14,8 19,2 16,8 6 3 16 9 W 1023,1 11 0 0,0
23.05.2017 02:00:00 15,1 11,9 15,0 19,3 16,8 9 5 18 10 WZW 1022,9 11 0 0,0
23.05.2017 01:00:00 15,3 11,9 15,2 19,3 16,8 9 5 22 12 W 1023,0 11 0 0,0
23.05.2017 00:00:00 15,4 12,3 15,4 19,4 16,8 8 5 19 10 W 1022,7 10 0 0,0
22.05.2017 23:00:00 15,6 12,9 15,5 19,5 16,8 9 5 21 11 W 1022,6 9 0 0,0
22.05.2017 22:00:00 15,5 12,8 15,5 19,6 16,8 10 5 24 13 WZW 1021,7 8 0 0,0
22.05.2017 21:00:00 15,8 12,9 15,8 19,6 16,8 12 6 24 13 W 1021,1 10 0 0,0
22.05.2017 20:00:00 16,1 13,4 16,2 19,6 16,8 11 6 29 16 W 1020,5 9 0 0,0
22.05.2017 19:00:00 16,5 13,6 16,8 19,6 16,8 15 8 34 18 W 1020,0 9 0 0,0
22.05.2017 18:00:00 17,0 14,1 17,6 19,5 16,8 16 9 34 18 W 1019,9 7 0 0,0
22.05.2017 17:00:00 17,8 14,1 18,9 19,3 16,8 18 10 37 20 W 1019,6 8 0 0,0
22.05.2017 16:00:00 19,0 14,7 21,2 19,1 16,8 18 10 35 19 W 1019,5 8 32 0,0
22.05.2017 15:00:00 20,1 15,5 23,2 18,8 16,8 18 10 37 20 W 1019,1 9 60 0,0
22.05.2017 14:00:00 21,3 15,4 24,7 18,6 16,8 18 10 35 19 W 1018,2 15 60 0,0
22.05.2017 13:00:00 24,1 14,8 27,1 18,4 16,8 16 9 33 18 WNW 1017,3 19 60 0,0
22.05.2017 12:00:00 23,5 15,5 24,7 18,3 16,8 13 7 26 14 W 1016,8 17 52 0,0
22.05.2017 11:00:00 22,1 15,4 22,0 18,2 16,8 12 6 21 11 WNW 1016,2 15 35 0,0
22.05.2017 10:00:00 20,8 16,0 21,3 18,2 16,8 9 5 16 9 WZW 1015,7 9 36 0,0
22.05.2017 09:00:00 20,1 15,3 19,1 18,2 16,7 2 1 9 5 WNW 1014,8 9 57 0,0
22.05.2017 08:00:00 17,2 14,7 15,6 18,3 16,7 7 4 17 9 W 1014,2 15 37 0,0
22.05.2017 07:00:00 16,2 12,6 14,8 18,3 16,7 7 4 14 8 ZZW 1013,8 42 0 0,0
22.05.2017 06:00:00 16,9 12,2 16,0 18,4 16,8 2 1 13 7 W 1012,9 43 0 0,0
22.05.2017 05:00:00 18,0 12,2 16,9 18,4 16,7 4 2 16 9 NW 1012,9 40 0 0,0
22.05.2017 04:00:00 18,5 11,6 17,9 18,5 16,8 3 2 11 6 N 1011,6 45 0 0,0
22.05.2017 03:00:00 18,9 11,2 17,8 18,6 16,8 5 3 16 8 N 1011,3 47 0 0,0
22.05.2017 02:00:00 19,5 10,8 18,8 18,6 16,8 6 4 14 8 O 1011,6 48 0 0,0
22.05.2017 01:00:00 19,8 10,8 18,6 18,6 16,7 6 3 11 6 O 1012,2 43 0 0,0
22.05.2017 00:00:00 20,8 10,6 19,7 18,7 16,8 5 3 18 10 OZO 1012,4 47 0 0,0
21.05.2017 23:00:00 21,9 10,4 21,1 18,7 16,8 12 6 27 14 O 1012,5 42 0 0,0
21.05.2017 22:00:00 23,0 10,4 22,3 18,7 16,8 16 9 26 14 O 1012,7 45 5 0,0
21.05.2017 21:00:00 23,9 10,9 23,2 18,7 16,8 11 6 29 16 ONO 1013,2 38 5 0,0
21.05.2017 20:00:00 24,4 11,0 23,9 18,6 16,8 17 9 27 15 O 1013,3 41 0 0,0
21.05.2017 19:00:00 25,1 11,6 25,2 18,5 16,8 11 6 34 19 O 1013,7 37 3 0,0
21.05.2017 18:00:00 25,2 11,4 25,8 18,4 16,8 19 10 32 18 O 1014,5 41 26 0,0
21.05.2017 17:00:00 26,0 12,1 25,1 18,2 16,8 18 10 33 18 O 1015,1 32 36 0,0
21.05.2017 16:00:00 25,5 12,7 26,6 17,9 16,8 22 12 37 20 O 1015,9 31 60 0,0
21.05.2017 15:00:00 24,5 11,8 24,7 17,8 16,8 21 11 32 18 O 1017,0 28 52 0,0
21.05.2017 14:00:00 23,1 13,0 23,9 17,6 16,8 20 11 33 18 O 1017,9 22 42 0,0
21.05.2017 13:00:00 22,0 11,1 22,7 17,5 16,8 19 10 34 18 O 1018,7 30 60 0,0
21.05.2017 12:00:00 20,4 11,1 20,9 17,4 16,8 22 12 39 21 O 1019,6 28 57 0,0
21.05.2017 11:00:00 18,7 11,3 18,3 17,5 16,8 16 9 27 14 OZO 1020,3 24 48 0,0
21.05.2017 10:00:00 16,7 11,0 16,5 17,5 16,8 16 9 29 16 O 1020,3 27 46 0,0
21.05.2017 09:00:00 14,3 10,7 10,6 17,6 16,8 11 6 19 10 O 1020,9 24 47 0,0
21.05.2017 08:00:00 10,1 8,9 9,2 17,7 16,8 7 4 11 6 ONO 1021,2 22 10 0,0
21.05.2017 07:00:00 9,4 8,5 8,5 17,8 16,8 7 4 10 5 ONO 1021,3 15 0 0,0
21.05.2017 06:00:00 9,9 8,7 8,9 17,9 16,8 9 5 15 8 NO 1021,4 13 0 0,0
21.05.2017 05:00:00 9,7 8,5 9,1 18,0 16,8 8 4 13 7 ONO 1021,9 13 0 0,0
21.05.2017 04:00:00 10,2 8,8 9,6 18,1 16,8 9 5 16 9 ONO 1022,7 13 0 0,0
21.05.2017 03:00:00 11,1 9,0 10,3 18,2 16,8 10 5 14 8 ONO 1023,4 20 0 0,0
21.05.2017 02:00:00 11,8 9,0 11,1 18,3 16,8 9 5 14 8 NO 1024,0 25 0 0,0
21.05.2017 01:00:00 12,6 9,1 11,2 18,4 16,8 9 5 15 8 NO 1024,4 18 0 0,0
21.05.2017 00:00:00 13,6 9,0 11,3 18,5 16,8 8 5 13 7 NO 1024,9 24 0 0,0
20.05.2017 23:00:00 13,2 9,1 11,5 18,6 16,8 3 2 5 3 NNO 1025,3 34 0 0,0
20.05.2017 22:00:00 15,2 8,7 13,8 18,7 16,8 0 0 5 3 N 1025,1 33 2 0,0
20.05.2017 21:00:00 17,7 7,1 16,9 18,7 16,8 2 1 7 4 NNW 1025,0 34 21 0,0
20.05.2017 20:00:00 19,0 5,8 20,7 18,6 16,8 3 2 15 8 NNO 1024,8 29 60 0,0
20.05.2017 19:00:00 19,7 7,1 23,0 18,5 16,8 4 2 19 11 W 1025,0 34 60 0,0
20.05.2017 18:00:00 19,4 7,8 22,5 18,3 16,8 9 5 24 13 NW 1025,2 30 60 0,0
20.05.2017 17:00:00 18,9 7,9 21,9 18,0 16,8 13 7 23 12 W 1025,5 28 60 0,0
20.05.2017 16:00:00 18,5 9,0 21,3 17,8 16,8 12 7 28 15 W 1025,9 26 55 0,0

tt = temperatuur
td = dauwpunt
tt 5cm = temperatuur 5cm
tt -20cm = temperatuur -20cm
tt -100cm = temperatuur -100cm
ff = windsnelheid
fx = windstoten
dd = windrichting
ppp = luchtdruk
vv = zicht
sd = Zonneschijnduur
rr = neerslag

Weerstations in de omgeving